Roseau, MN

3:20 AM CST on February 18, 2018 (GMT -0600)
Roseau Municipal-Billberg

Weather History for KROX - May, 2013

Change the Weather History Date:

Sunday, May 19, 2013

  Actual Average Record
Temperature  
Mean Temperature 52 °F -  
Max Temperature 53 °F 68 °F 90 °F (1977)
Min Temperature 51 °F 39 °F 28 °F (1965)
Degree Days  
Heating Degree Days 13    
Growing Degree Days 2 (Base 50)    
Moisture  
Dew Point 47 °F    
Average Humidity 82    
Maximum Humidity 88    
Minimum Humidity 82    
Precipitation  
Precipitation 1.68 in - - ()
Sea Level Pressure  
Sea Level Pressure 29.81 in    
Wind  
Wind Speed 16 mph (ENE)    
Max Wind Speed 32 mph    
Max Gust Speed 39 mph    
Visibility 7 miles    
Events Rain , Thunderstorm    
Averages and records for this station are not official NWS values.
T = Trace of Precipitation, MM = Missing Value Source: NWS Daily Summary

Daily Weather History Graph

Daily Weather History Graph

Search for Another Location

Airport or City:

Trip Planner

Search our weather history database for the weather conditions in past years. The results will help you decide how hot, cold, wet, or windy it might be!

Date:

Astronomy

May. 19, 2013 Rise Set
Actual Time 5:35 AM CDT 9:03 PM CDT
Civil Twilight 4:56 AM CDT 9:42 PM CDT
Nautical Twilight 4:05 AM CDT 10:34 PM CDT
Astronomical Twilight 2:56 AM CDT 11:45 PM CDT
Moon 2:40 PM CDT (5/19) 2:31 AM CDT (5/19)
Length of Visible Light 16h 45m
Length of Day
15h 27m
Waxing Gibbous, 65% of the Moon is Illuminated
May 19
Waxing Gibbous
May 24
Full
May 31
Last Quarter
Jun 8
New
Jun 16
First Quarter

Hourly Weather History & Observations

Time (CDT) Temp. Dew Point Humidity Pressure Visibility Wind Dir Wind Speed Gust Speed Precip Events Conditions
12:14 AM 51.8 °F 46.4 °F 82% 29.88 in 5.0 mi NE 6.9 mph - N/A   Haze
12:35 AM 51.8 °F 46.4 °F 82% 29.88 in 4.0 mi NE 8.1 mph - N/A   Haze
12:54 AM 51.8 °F 46.4 °F 82% 29.88 in 3.0 mi NE 6.9 mph - N/A   Haze
1:14 AM 51.8 °F 46.4 °F 82% 29.88 in 2.0 mi NE 5.8 mph - N/A   Haze
1:34 AM 51.8 °F 48.2 °F 88% 29.87 in 2.0 mi ENE 6.9 mph - N/A   Overcast
1:54 AM 51.8 °F 48.2 °F 88% 29.86 in 4.0 mi NNE 5.8 mph - N/A   Overcast
2:14 AM 51.8 °F 46.4 °F 82% 29.85 in 3.0 mi NNE 11.5 mph - N/A   Haze
2:34 AM 51.8 °F 46.4 °F 82% 29.82 in 3.0 mi NE 11.5 mph - N/A   Haze
2:54 AM 51.8 °F 46.4 °F 82% 29.82 in 3.0 mi NE 9.2 mph - N/A   Haze
3:14 AM 51.8 °F 46.4 °F 82% 29.82 in 1.2 mi ENE 9.2 mph - N/A   Haze
3:34 AM 51.8 °F 46.4 °F 82% 29.85 in 1.8 mi NE 9.2 mph - N/A   Haze
3:54 AM 53.6 °F 48.2 °F 82% 29.87 in 5.0 mi East 8.1 mph - N/A   Haze
4:14 AM 53.6 °F 48.2 °F 82% 29.86 in 3.0 mi East 9.2 mph - N/A   Haze
4:34 AM 51.8 °F 46.4 °F 82% 29.86 in 0.5 mi ENE 11.5 mph - N/A   Haze
4:54 AM 51.8 °F 46.4 °F 82% 29.85 in 1.0 mi NE 11.5 mph - N/A   Haze
5:14 AM 51.8 °F 46.4 °F 82% 29.83 in 0.8 mi NE 15.0 mph - N/A   Haze
5:34 AM 51.8 °F 46.4 °F 82% 29.83 in 2.0 mi NE 13.8 mph - N/A   Haze
5:54 AM 51.8 °F 46.4 °F 82% 29.82 in 10.0 mi ENE 15.0 mph 18.4 mph N/A   Overcast
6:14 AM 53.6 °F 48.2 °F 82% 29.82 in 10.0 mi NE 15.0 mph - N/A   Overcast
6:35 AM 53.6 °F 48.2 °F 82% 29.83 in 10.0 mi ENE 15.0 mph - N/A   Overcast
7:14 AM 51.8 °F 46.4 °F 82% 29.82 in 1.2 mi ENE 19.6 mph - N/A   Haze
7:35 AM 53.6 °F 48.2 °F 82% 29.82 in 1.5 mi ENE 16.1 mph - N/A   Haze
7:54 AM 53.6 °F 48.2 °F 82% 29.81 in 7.0 mi ENE 18.4 mph - 0.01 in Rain Light Rain
8:14 AM 53.6 °F 48.2 °F 82% 29.81 in 10.0 mi ENE 18.4 mph 24.2 mph 0.06 in Rain Light Rain
8:35 AM 53.6 °F 48.2 °F 82% 29.82 in 10.0 mi ENE 17.3 mph - 0.13 in Rain , Thunderstorm Light Thunderstorms and Rain
8:54 AM 51.8 °F 46.4 °F 82% 29.84 in 10.0 mi ENE 17.3 mph - 0.19 in Rain , Thunderstorm Rain
9:14 AM 51.8 °F 46.4 °F 82% 29.85 in 10.0 mi East 13.8 mph - 0.09 in Rain Rain
9:54 AM 51.8 °F 46.4 °F 82% 29.83 in 7.0 mi ENE 21.9 mph - 0.37 in Rain Rain
10:14 AM 51.8 °F 46.4 °F 82% 29.82 in 10.0 mi ENE 20.7 mph - 0.15 in Rain Light Rain
10:35 AM 51.8 °F 46.4 °F 82% 29.80 in 10.0 mi ENE 20.7 mph - 0.23 in Rain Rain
10:54 AM 53.6 °F 48.2 °F 82% 29.81 in 10.0 mi ENE 18.4 mph - 0.27 in Rain Light Rain
11:14 AM 53.6 °F 48.2 °F 82% 29.81 in 5.0 mi ENE 21.9 mph 26.5 mph 0.05 in Rain Light Rain
11:35 AM 53.6 °F 48.2 °F 82% 29.78 in 5.0 mi NE 25.3 mph - 0.12 in Rain Light Rain
11:54 AM 53.6 °F 48.2 °F 82% 29.79 in 10.0 mi ENE 25.3 mph - 0.14 in Rain Light Rain
12:14 PM 53.6 °F 48.2 °F 82% 29.79 in 4.0 mi ENE 26.5 mph 29.9 mph 0.07 in Rain Rain
12:35 PM 53.6 °F 48.2 °F 82% 29.77 in 5.0 mi NE 21.9 mph 28.8 mph 0.16 in Rain Light Rain
12:54 PM 53.6 °F 48.2 °F 82% 29.79 in 7.0 mi NE 21.9 mph 28.8 mph 0.21 in Rain Light Rain
1:14 PM 53.6 °F 48.2 °F 82% 29.77 in 7.0 mi NE 25.3 mph 34.5 mph 0.07 in Rain Light Rain
1:34 PM 53.6 °F 48.2 °F 82% 29.76 in 7.0 mi ENE 28.8 mph 35.7 mph 0.10 in Rain Light Rain
2:14 PM 51.8 °F 46.4 °F 82% 29.80 in 5.0 mi ENE 23.0 mph 32.2 mph 0.12 in Rain Rain
2:34 PM 51.8 °F 46.4 °F 82% 29.80 in 7.0 mi ENE 24.2 mph 31.1 mph 0.19 in Rain Light Rain
3:14 PM 51.8 °F 46.4 °F 82% 29.80 in 3.0 mi ENE 24.2 mph 28.8 mph 0.05 in Rain Light Rain
3:34 PM 51.8 °F 46.4 °F 82% 29.80 in 5.0 mi ENE 20.7 mph 27.6 mph 0.11 in Rain Rain
3:54 PM 51.8 °F 46.4 °F 82% 29.80 in 7.0 mi NE 24.2 mph 31.1 mph 0.12 in Rain Light Rain
4:14 PM 51.8 °F 46.4 °F 82% 29.79 in 5.0 mi NE 26.5 mph 31.1 mph 0.03 in Rain Light Rain
4:34 PM 51.8 °F 46.4 °F 82% 29.79 in 10.0 mi ENE 26.5 mph 29.9 mph 0.03 in   Overcast
4:54 PM 51.8 °F 46.4 °F 82% 29.80 in 10.0 mi ENE 26.5 mph 31.1 mph 0.03 in   Overcast
5:14 PM 51.8 °F 46.4 °F 82% 29.79 in 10.0 mi ENE 26.5 mph 32.2 mph N/A   Mostly Cloudy
5:34 PM 51.8 °F 46.4 °F 82% 29.79 in 10.0 mi ENE 26.5 mph 33.4 mph N/A   Mostly Cloudy
5:54 PM 51.8 °F 46.4 °F 82% 29.78 in 10.0 mi ENE 28.8 mph 34.5 mph N/A   Overcast
6:14 PM 51.8 °F 46.4 °F 82% 29.79 in 7.0 mi ENE 26.5 mph 33.4 mph N/A   Overcast
6:34 PM 51.8 °F 46.4 °F 82% 29.78 in 5.0 mi ENE 26.5 mph 33.4 mph 0.03 in Rain Light Rain
6:55 PM 51.8 °F 46.4 °F 82% 29.78 in 10.0 mi ENE 26.5 mph 34.5 mph 0.05 in Rain Light Rain
7:14 PM 51.8 °F 46.4 °F 82% 29.79 in 10.0 mi ENE 25.3 mph 32.2 mph N/A   Mostly Cloudy
7:34 PM 51.8 °F 46.4 °F 82% 29.79 in 10.0 mi ENE 31.1 mph 35.7 mph N/A   Mostly Cloudy
7:55 PM 51.8 °F 46.4 °F 82% 29.79 in 10.0 mi ENE 28.8 mph 39.1 mph N/A   Mostly Cloudy
8:14 PM 51.8 °F 46.4 °F 82% 29.79 in 5.0 mi ENE 32.2 mph 36.8 mph N/A   Haze
8:34 PM 51.8 °F 46.4 °F 82% 29.79 in 10.0 mi ENE 29.9 mph 36.8 mph N/A   Overcast
8:55 PM 51.8 °F 46.4 °F 82% 29.80 in 10.0 mi ENE 26.5 mph 35.7 mph N/A   Overcast
9:14 PM 51.8 °F 46.4 °F 82% 29.79 in 10.0 mi ENE 27.6 mph 33.4 mph N/A   Overcast
9:34 PM 51.8 °F 46.4 °F 82% 29.79 in 10.0 mi ENE 26.5 mph 32.2 mph N/A   Overcast
9:55 PM 51.8 °F 46.4 °F 82% 29.78 in 10.0 mi ENE 25.3 mph 34.5 mph N/A   Overcast
10:14 PM 51.8 °F 46.4 °F 82% 29.80 in 10.0 mi ENE 21.9 mph 34.5 mph N/A   Overcast
10:34 PM 51.8 °F 46.4 °F 82% 29.79 in 10.0 mi ENE 24.2 mph 31.1 mph N/A   Overcast
11:14 PM 51.8 °F 46.4 °F 82% 29.79 in 10.0 mi ENE 23.0 mph - N/A   Overcast
11:34 PM 51.8 °F 46.4 °F 82% 29.78 in 10.0 mi ENE 21.9 mph 31.1 mph N/A   Overcast
11:55 PM 51.8 °F 46.4 °F 82% 29.78 in 10.0 mi ENE 19.6 mph 34.5 mph N/A   Overcast